PP5AMP-13 Weather Reports


time (UTC)temp
C
wind
direction
speed
KPH
gust
KPH
rain 1hr
cm
rain 24hr
cm
rain mn
cm
humidity
%
barometer
mb
20260506144936 26 0.0 0.0 0.00 0.00 0.00 81 1020.9
20260506143936 26 0.0 0.0 0.00 0.00 0.00 81 1021.1
20260506142939 26 0.0 0.0 0.00 0.00 0.00 80 1021.3
20260506141936 26 0.0 0.0 0.00 0.00 0.00 80 1021.4
20260506140936 26 0.0 0.0 0.00 0.00 0.00 82 1021.6
20260506135936 26 0.0 0.0 0.00 0.00 0.00 80 1021.7
20260506134935 26 0.0 0.0 0.00 0.00 0.00 80 1021.7
20260506133935 26 0.0 0.0 0.00 0.00 0.00 80 1021.7
20260506132936 26 0.0 0.0 0.00 0.00 0.00 82 1021.7
20260506131935 25 0.0 0.0 0.00 0.00 0.00 83 1021.9
20260506130935 25 0.0 0.0 0.00 0.00 0.00 82 1021.9
20260506125935 25 0.0 0.0 0.00 0.00 0.00 83 1021.9
20260506124935 25 0.0 0.0 0.00 0.00 0.00 83 1021.9
20260506123935 25 0.0 0.0 0.00 0.00 0.00 84 1021.8
20260506122935 25 0.0 0.0 0.00 0.00 0.00 85 1021.7
20260506121935 24 0.0 0.0 0.00 0.00 0.00 86 1021.8
20260506120935 24 0.0 0.0 0.00 0.00 0.00 87 1021.6
20260506115951 24 0.0 0.0 0.00 0.00 0.00 87 1021.7
20260506114939 24 0.0 0.0 0.00 0.00 0.00 87 1021.6
20260506113936 24 0.0 0.0 0.00 0.00 0.00 87 1021.4
20260506112935 24 0.0 0.0 0.00 0.00 0.00 86 1021.3
20260506111935 24 0.0 0.0 0.00 0.00 0.00 86 1021.2
20260506110936 24 0.0 0.0 0.00 0.00 0.00 86 1021.3
20260506105936 23 0.0 0.0 0.00 0.00 0.00 87 1021.2
20260506104935 23 0.0 0.0 0.00 0.00 0.00 87 1021.1
20260506100935 23 0.0 0.0 0.00 0.00 0.00 84 1020.3
20260506095935 23 0.0 0.0 0.00 0.00 0.00 84 1020.3
20260506094935 23 0.0 0.0 0.00 0.00 0.00 83 1020.3
20260506093937 23 0.0 0.0 0.00 0.00 0.00 83 1020.2
20260506092935 23 0.0 0.0 0.00 0.00 0.00 83 1020.3
20260506091935 23 0.0 0.0 0.00 0.00 0.00 83 1020.4
20260506042934 24 0.0 0.0 0.00 0.00 0.00 83 1019.9
20260506032934 24 0.0 0.0 0.00 0.00 0.00 84 1020.2
20260506031934 24 0.0 0.0 0.00 0.00 0.00 84 1020.1
20260506030934 24 0.0 0.0 0.00 0.00 0.00 84 1020.2
20260506025936 24 0.0 0.0 0.00 0.00 0.00 84 1020.1
20260506024934 24 0.0 0.0 0.00 0.00 0.00 84 1020.1
20260506023934 24 0.0 0.0 0.00 0.00 0.00 83 1020.3
20260506022934 25 0.0 0.0 0.00 0.00 0.00 83 1020.2
20260506021934 24 0.0 0.0 0.00 0.00 0.00 83 1020.3
20260506020934 25 0.0 0.0 0.00 0.00 0.00 83 1020.3
20260506015933 25 0.0 0.0 0.00 0.00 0.00 82 1020.5
20260506014934 25 0.0 0.0 0.00 0.00 0.00 83 1020.5
20260506013933 25 0.0 0.0 0.00 0.00 0.00 83 1020.6
20260506012934 25 0.0 0.0 0.00 0.00 0.00 83 1020.6
20260506011934 25 0.0 0.0 0.00 0.00 0.00 83 1020.4
20260506010934 25 0.0 0.0 0.00 0.00 0.00 82 1020.5
20260506005934 25 0.0 0.0 0.00 0.00 0.00 82 1020.4
20260506004934 25 0.0 0.0 0.00 0.00 0.00 82 1020.5
20260506003933 25 0.0 0.0 0.00 0.00 0.00 82 1020.5
20260506002934 25 0.0 0.0 0.00 0.00 0.00 81 1020.4
20260506001934 25 0.0 0.0 0.00 0.00 0.00 81 1020.3
20260506000933 25 0.0 0.0 0.00 0.00 0.00 81 1020.3
20260505235933 25 0.0 0.0 0.00 0.00 0.00 81 1020.4
20260505234933 25 0.0 0.0 0.00 0.00 0.00 80 1020.3
20260505233933 25 0.0 0.0 0.00 0.00 0.00 80 1020.2
20260505232936 25 0.0 0.0 0.00 0.00 0.00 79 1020.2
20260505230933 26 0.0 0.0 0.00 0.00 0.00 76 1020.0
20260505225933 26 0.0 0.0 0.00 0.00 0.00 77 1020.0
20260505224933 26 0.0 0.0 0.00 0.00 0.00 77 1019.9
20260505223933 26 0.0 0.0 0.00 0.00 0.00 76 1019.8
20260505221120 26 0.0 0.0 0.00 0.00 0.00 75 1019.6
20260505220122 26 0.0 0.0 0.00 0.00 0.00 75 1019.7
20260505215120 26 0.0 0.0 0.00 0.00 0.00 75 1019.7
20260505214120 26 0.0 0.0 0.00 0.00 0.00 74 1019.7
20260505213120 26 0.0 0.0 0.00 0.00 0.00 74 1019.7
20260505212120 26 0.0 0.0 0.00 0.00 0.00 74 1019.6
20260505211122 26 0.0 0.0 0.00 0.00 0.00 74 1019.6
20260505210120 26 0.0 0.0 0.00 0.00 0.00 74 1019.4
20260505205136 26 0.0 0.0 0.00 0.00 0.00 74 1019.3
20260505204120 26 0.0 0.0 0.00 0.00 0.00 73 1019.3
20260505203120 26 0.0 0.0 0.00 0.00 0.00 73 1019.2
20260505202122 26 0.0 0.0 0.00 0.00 0.00 73 1019.0
20260505201120 26 0.0 0.0 0.00 0.00 0.00 73 1019.0
20260505200121 26 0.0 0.0 0.00 0.00 0.00 72 1019.0
20260505195120 26 0.0 0.0 0.00 0.00 0.00 72 1018.9
20260505194120 26 0.0 0.0 0.00 0.00 0.00 72 1018.9
20260505193120 26 0.0 0.0 0.00 0.00 0.00 72 1018.9
20260505192120 26 0.0 0.0 0.00 0.00 0.00 72 1018.9
20260505191120 26 0.0 0.0 0.00 0.00 0.00 73 1018.8
20260505190120 26 0.0 0.0 0.00 0.00 0.00 73 1018.8
20260505185119 26 0.0 0.0 0.00 0.00 0.00 73 1018.8
20260505184120 26 0.0 0.0 0.00 0.00 0.00 73 1018.8
20260505183120 26 0.0 0.0 0.00 0.00 0.00 73 1018.8
20260505182119 26 0.0 0.0 0.00 0.00 0.00 73 1018.8
20260505181120 26 0.0 0.0 0.00 0.00 0.00 73 1018.7
20260505180123 25 0.0 0.0 0.00 0.00 0.00 73 1018.5
20260505175120 25 0.0 0.0 0.00 0.00 0.00 73 1018.6
20260505174120 25 0.0 0.0 0.00 0.00 0.00 72 1018.6
20260505173120 25 0.0 0.0 0.00 0.00 0.00 72 1018.9
20260505172120 25 0.0 0.0 0.00 0.00 0.00 73 1019.0
20260505171120 25 0.0 0.0 0.00 0.00 0.00 74 1019.1
20260505170119 25 0.0 0.0 0.00 0.00 0.00 74 1019.1
20260505165119 25 0.0 0.0 0.00 0.00 0.00 74 1019.2
20260505164120 25 0.0 0.0 0.00 0.00 0.00 74 1019.4
20260505163120 25 0.0 0.0 0.00 0.00 0.00 74 1019.4
20260505162119 25 0.0 0.0 0.00 0.00 0.00 73 1019.5
20260505161120 25 0.0 0.0 0.00 0.00 0.00 74 1019.7
20260505160119 25 0.0 0.0 0.00 0.00 0.00 74 1019.6
20260505153119 25 0.0 0.0 0.00 0.00 0.00 73 1019.9
20260505152119 25 0.0 0.0 0.00 0.00 0.00 74 1019.9
20260505151120 25 0.0 0.0 0.00 0.00 0.00 73 1020.0
20260505150119 25 0.0 0.0 0.00 0.00 0.00 73 1020.2